Location: Unspecified
(0.0000°N, 0.0000°E)
Time: 22:06:49
(UTC+00:00)

Vanguard 3 - All Passes

Search period start: 28 May 2016 00:00
Search period end: 07 June 2016 00:00
Orbit: 509 x 3267 km, 33.4° (Epoch: 27 May)

Date Brightness Start Highest point End Pass type
(mag) Time Alt. Az. Time Alt. Az. Time Alt. Az.
28 May - 02:09:06 10° W 02:21:57 26° SW 02:30:59 10° SSE night (unlit)
28 May - 11:17:51 10° SW 11:21:41 88° NNW 11:27:05 10° NE daylight
28 May - 13:31:21 10° NW 13:34:47 16° NNW 13:39:17 10° NNE daylight
28 May - 18:04:03 10° NNW 18:11:47 15° NNE 18:20:54 10° NE visible
28 May - 20:15:43 10° NNW 20:31:47 37° NNE 20:48:51 10° E visible
28 May - 22:29:55 10° NW 22:50:08 81° NE 23:06:36 10° ESE visible
29 May - 00:48:55 10° WNW 01:06:36 44° SW 01:18:51 10° SSE visible
29 May - 03:18:26 10° SW 03:22:21 12° SSW 03:25:46 10° SSW visible
29 May - 10:05:41 10° SSW 10:08:54 28° SE 10:12:31 10° E daylight
29 May - 12:17:02 10° W 12:20:38 25° NNW 12:25:38 10° NNE daylight
29 May - 19:02:01 10° NNW 19:14:27 25° NNE 19:29:09 10° ENE visible
29 May - 21:14:34 10° NW 21:33:13 59° NE 21:51:11 10° ESE visible
29 May - 23:30:45 10° WNW 23:50:41 66° SW 00:05:41 10° SE visible
30 May - 01:54:13 10° W 02:06:47 24° SW 02:16:01 10° SSE night (unlit)
30 May - 11:03:37 10° WSW 11:07:16 56° NNW 11:12:02 10° NE daylight
30 May - 13:19:52 10° NNW 13:20:36 10° NNW 13:21:21 10° N daylight
30 May - 17:49:21 10° N 17:57:09 16° NNE 18:06:33 10° NE daylight
30 May - 20:00:13 10° NNW 20:16:11 42° NE 20:34:03 10° E visible
30 May - 22:14:13 10° NW 22:34:09 89° NE 22:51:31 10° SE visible
31 May - 00:33:35 10° W 00:51:00 39° SW 01:03:47 10° SSE visible
31 May - 03:04:39 10° SW 03:07:45 11° SSW 03:10:33 10° SSW visible
31 May - 09:50:52 10° SW 09:54:26 42° SE 09:58:13 10° ENE daylight
31 May - 12:03:40 10° WNW 12:06:22 16° NNW 12:09:41 10° NNE daylight
31 May - 18:46:48 10° NNW 18:59:14 28° NNE 19:14:34 10° E visible
31 May - 20:58:59 10° NW 21:17:17 66° NE 21:36:05 10° ESE visible
31 May - 23:15:13 10° WNW 23:34:47 59° SW 23:50:31 10° SE visible
01 Jun - 01:39:29 10° WSW 01:51:41 22° SSW 02:01:00 10° SSE night (unlit)
01 Jun - 08:38:56 10° S 08:41:22 15° SSE 08:43:36 10° ESE daylight
01 Jun - 10:49:31 10° W 10:52:53 34° NNW 10:56:56 10° NE daylight
01 Jun - 17:34:30 10° N 17:42:25 17° NNE 17:52:13 10° ENE daylight
01 Jun - 19:44:49 10° NNW 20:00:28 46° NE 20:19:01 10° ESE visible
01 Jun - 21:58:41 10° WNW 22:18:08 82° SW 22:36:15 10° SE visible
02 Jun - 00:18:26 10° W 00:35:27 35° SW 00:48:38 10° SSE visible
02 Jun - 02:50:46 10° SW 02:53:14 11° SSW 02:55:32 10° SSW visible
02 Jun - 09:36:11 10° SW 09:40:01 71° SE 09:43:48 10° ENE daylight
02 Jun - 18:31:36 10° NNW 18:43:54 30° NE 18:59:47 10° E visible
02 Jun - 20:43:32 10° NW 21:01:17 74° NE 21:20:47 10° ESE visible
02 Jun - 22:59:53 10° WNW 23:18:55 53° SW 23:35:14 10° SE visible
03 Jun - 01:24:55 10° WSW 01:36:41 20° SSW 01:46:00 10° SSE night (unlit)
03 Jun - 08:23:22 10° SSW 08:27:01 23° SSE 08:30:04 10° E daylight
03 Jun - 10:35:36 10° W 10:38:31 22° NNW 10:41:43 10° NNE daylight
03 Jun - 17:19:34 10° N 17:27:35 18° NNE 17:37:48 10° ENE daylight
03 Jun - 19:29:31 10° NW 19:44:40 52° NE 20:03:47 10° ESE visible
03 Jun - 21:43:19 10° WNW 22:02:06 74° SW 22:20:50 10° SE visible
04 Jun - 00:03:30 10° W 00:20:00 32° SSW 00:33:25 10° SSE visible
04 Jun - 02:36:24 10° SSW 02:38:49 10° SSW 02:41:04 10° S visible
04 Jun - 07:11:13 10° S 07:13:18 12° SSE 07:15:07 10° SE daylight
04 Jun - 09:21:33 10° WSW 09:25:36 71° NW 09:29:16 10° NE daylight
04 Jun - 18:16:28 10° NNW 18:28:28 34° NE 18:44:47 10° E visible
04 Jun - 20:28:15 10° NW 20:45:17 81° NE 21:05:18 10° ESE visible
04 Jun - 22:44:45 10° WNW 23:03:06 47° SW 23:19:48 10° SE visible
05 Jun - 01:10:29 10° WSW 01:21:47 18° SSW 01:31:01 10° SSE night (unlit)
05 Jun - 08:08:02 10° SW 08:12:40 37° SSE 08:16:11 10° E daylight
05 Jun - 10:22:02 10° WNW 10:24:06 14° NNW 10:26:13 10° N daylight
05 Jun - 17:04:35 10° N 17:12:38 19° NE 17:23:16 10° ENE daylight
05 Jun - 19:14:20 10° NW 19:28:50 58° NE 19:48:20 10° ESE visible
05 Jun - 21:28:08 10° WNW 21:46:07 67° SW 22:05:15 10° SE visible
05 Jun - 23:48:46 10° W 00:04:37 29° SSW 00:18:08 10° SSE visible
06 Jun - 02:21:20 10° SSW 02:24:28 11° SSW 02:27:21 10° S visible
06 Jun - 06:54:42 10° SSW 06:59:03 19° SSE 07:02:20 10° ESE daylight
06 Jun - 09:07:00 10° WSW 09:11:09 43° NW 09:14:39 10° NE daylight
06 Jun - 18:01:24 10° NNW 18:13:00 37° NE 18:29:35 10° E visible
06 Jun - 20:13:06 10° NW 20:29:18 90° NE 20:49:38 10° SE visible
06 Jun - 22:29:50 10° W 22:47:23 42° SSW 23:04:16 10° SSE visible
